Regional Weather Roundup
Issued by NWS

Home | Current Version | Previous Version | Text Only | Print | Product List | Glossary Off
Versions: 1 2 3 4 5 6 7 8 9 10 11 12 13 14 15 16 17 18 19 20 21 22 23 24 25 26 27 28 29 30 31 32 33 34 35 36 37 38 39 40 41 42 43 44 45 46 47 48 49 50

000
ASUS45 KCYS 230910
RWRWY

WYOMING REGIONAL WEATHER ROUNDUP
NATIONAL WEATHER SERVICE CHEYENNE WY
200 AM MST SUN NOV 23 2014

NOTE:  "FAIR" INDICATES FEW OR NO CLOUDS BELOW 12,000 FEET
WITH NO SIGNIFICANT WEATHER AND/OR OBSTRUCTIONS TO VISIBILITY.

WYZ001-231000-
YELLOWSTONE NATIONAL PARK

CITY           SKY/WX    TMP DP  RH WIND       PRES   REMARKS
LK YELLOWSTONE   N/A     10   6  84 W3        29.79R
W YELLOWSTONE  NOT AVBL

$$
WYZ002>013-054>058-071-098>099-231000-
NORTHERN WYOMING

CITY           SKY/WX    TMP DP  RH WIND       PRES   REMARKS
JACKSON        CLOUDY    19  19 100 N3        29.81R VSB 1
CODY           MOCLDY    36  14  41 W14G20    29.71R WCI  27
GREYBULL       MOCLDY    20  19  96 SE5       29.72R WCI  13
WORLAND        MOCLDY    20  18  92 CALM      29.71R
SHERIDAN       CLEAR     31  18  58 NW14      29.66R WCI  21
BUFFALO        CLEAR     36   7  29 NW22G31   29.65R WCI  25
GILLETTE       NOT AVBL
HULETT           N/A    N/A N/A N/A MISG        N/A
NEWCASTLE      FAIR      32  21  64 NW15      29.63R WCI  22

$$
WYZ014>020-022>026-101>103-231000-
CENTRAL WYOMING

CITY           SKY/WX    TMP DP  RH WIND       PRES   REMARKS
BIG PINEY      MOCLDY    25  17  72 E7        29.81R WCI  17
PINEDALE       CLOUDY    21  19  93 CALM      29.80F
DUBOIS         FAIR      19  10  68 W8        29.75R WCI   9
LANDER         NOT AVBL
RIVERTON       CLEAR     28  13  53 NW12      29.73R WCI  18
CASPER         MOCLDY    25  19  78 W6        29.72R WCI  18
DOUGLAS        MOCLDY   N/A N/A N/A NW10      29.67R

$$
WYZ021-027>030-104>119-231000-
SOUTHERN WYOMING

CITY           SKY/WX    TMP DP  RH WIND       PRES   REMARKS
EVANSTON       LGT SNOW  25  22  88 W18G29    29.87  FOG     WCI  11
KEMMERER       LGT SNOW  25  23  93 W21       29.82R WCI  10
FORT BRIDGER   FAIR      26  24  89 W15       29.86R WCI  14
ROCK SPRINGS   PTCLDY    26  20  77 W17       29.81R WCI  13
DIXON          CLOUDY    31  27  86 W8        29.82R WCI  23
RAWLINS        MOCLDY    25  18  74 W10       29.75R WCI  15
SARATOGA       CLOUDY    28  23  80 W6        29.76R WCI  22
LARAMIE        CLOUDY    27  20  75 W17       29.68R WCI  14
CHEYENNE       MOCLDY    34  16  47 NW17G30   29.62F WCI  23
TORRINGTON     CLOUDY    36  26  67 W3        29.66R
PINE BLUFFS    PTSUNNY   34  28  80 N12       29.66R WCI  25

$$


USA.gov is the U.S. government's official web portal to all federal, state and local government web resources and services.